�������l�o���
Date,Time,MP-1(��Sv/h),MP-2(��Sv/h),MP-3(��Sv/h),MP-4(��Sv/h),MP-5(��Sv/h),MP-6(��Sv/h),MP-7(��Sv/h),MP-8(��Sv/h),����,����(m/s),���J
2023/09/23,00:00,0.538,0.815,0.497,1.015,0.725,0.323,0.581,0.537,���k��,2.0,��
2023/09/23,00:10,0.538,0.814,0.498,1.017,0.727,0.324,0.580,0.536,�k��,2.3,��
2023/09/23,00:20,0.539,0.816,0.497,1.016,0.723,0.325,0.580,0.536,�k��,0.9,�L
2023/09/23,00:30,0.538,0.814,0.498,1.014,0.724,0.324,0.579,0.536,�k��,1.1,�L
2023/09/23,00:40,0.536,0.813,0.498,1.017,0.725,0.325,0.579,0.537,�k,0.8,�L
2023/09/23,00:50,0.539,0.815,0.497,1.015,0.725,0.324,0.580,0.538,���쐼,1.5,�L
2023/09/23,01:00,0.538,0.817,0.498,1.016,0.723,0.324,0.578,0.537,��,1.9,�L
2023/09/23,01:10,0.537,0.817,0.498,1.015,0.725,0.324,0.582,0.537,���k��,1.7,�L
2023/09/23,01:20,0.540,0.817,0.497,1.018,0.725,0.324,0.579,0.537,���k��,1.5,�L
2023/09/23,01:30,0.537,0.815,0.498,1.016,0.726,0.326,0.579,0.535,���k��,2.0,�L
2023/09/23,01:40,0.539,0.817,0.497,1.016,0.727,0.326,0.581,0.537,�k��,2.0,�L
2023/09/23,01:50,0.540,0.817,0.499,1.019,0.725,0.325,0.581,0.538,���k��,1.4,�L
2023/09/23,02:00,0.539,0.817,0.498,1.018,0.726,0.327,0.579,0.538,���k��,1.2,�L
2023/09/23,02:10,0.542,0.817,0.498,1.019,0.728,0.329,0.579,0.538,���k��,2.0,�L
2023/09/23,02:20,0.541,0.816,0.501,1.020,0.724,0.329,0.579,0.538,��,1.5,�L
2023/09/23,02:30,0.540,0.814,0.499,1.019,0.723,0.328,0.578,0.537,���k��,2.5,�L
2023/09/23,02:40,0.538,0.812,0.497,1.019,0.721,0.328,0.578,0.535,���k��,3.0,�L
2023/09/23,02:50,0.536,0.813,0.497,1.018,0.721,0.327,0.577,0.533,���k��,2.6,�L
2023/09/23,03:00,0.536,0.810,0.496,1.018,0.719,0.325,0.575,0.532,���쐼,2.9,�L
2023/09/23,03:10,0.535,0.811,0.496,1.016,0.718,0.325,0.576,0.532,���쐼,3.5,�L
2023/09/23,03:20,0.533,0.808,0.495,1.016,0.717,0.324,0.574,0.532,���쐼,3.0,�L
2023/09/23,03:30,0.533,0.808,0.493,1.015,0.717,0.325,0.573,0.533,���쐼,3.5,�L
2023/09/23,03:40,0.533,0.802,0.493,1.014,0.716,0.324,0.574,0.532,���쐼,3.2,�L
2023/09/23,03:50,0.531,0.805,0.493,1.013,0.714,0.324,0.572,0.532,���쐼,3.5,�L
2023/09/23,04:00,0.533,0.807,0.493,1.012,0.715,0.323,0.573,0.530,���쐼,3.0,�L
2023/09/23,04:10,0.531,0.808,0.493,1.012,0.716,0.323,0.572,0.532,���쐼,3.3,�L
2023/09/23,04:20,0.530,0.805,0.492,1.011,0.716,0.322,0.572,0.532,���쐼,4.4,�L
2023/09/23,04:30,0.532,0.805,0.493,1.011,0.713,0.325,0.573,0.530,���쐼,4.3,�L
2023/09/23,04:40,0.530,0.798,0.492,1.007,0.708,0.325,0.571,0.529,���쐼,2.3,�L
2023/09/23,04:50,0.530,0.793,0.490,1.005,0.708,0.324,0.570,0.530,���k��,2.3,�L
2023/09/23,05:00,0.530,0.794,0.489,1.002,0.707,0.324,0.572,0.530,�k��,1.7,�L
2023/09/23,05:10,0.529,0.794,0.490,1.001,0.708,0.324,0.571,0.531,���k��,2.6,�L
2023/09/23,05:20,0.527,0.792,0.489,1.001,0.706,0.324,0.571,0.530,�k��,2.9,�L
2023/09/23,05:30,0.529,0.794,0.489,0.999,0.705,0.323,0.569,0.527,���k��,2.3,�L
2023/09/23,05:40,0.528,0.791,0.490,0.998,0.703,0.323,0.569,0.530,���k��,2.3,�L
2023/09/23,05:50,0.527,0.792,0.487,0.995,0.705,0.322,0.569,0.529,�k��,2.8,�L
2023/09/23,06:00,0.526,0.791,0.489,0.998,0.705,0.323,0.570,0.529,�k��,4.6,�L
2023/09/23,06:10,0.527,0.790,0.488,0.996,0.703,0.323,0.570,0.529,�k��,4.3,�L
2023/09/23,06:20,0.526,0.792,0.488,0.994,0.703,0.323,0.570,0.529,�k��,4.3,�L
2023/09/23,06:30,0.525,0.789,0.488,0.997,0.704,0.323,0.570,0.529,�k�k��,4.2,�L
2023/09/23,06:40,0.525,0.787,0.487,0.993,0.704,0.323,0.570,0.528,�k�k��,4.2,�L
2023/09/23,06:50,0.523,0.788,0.486,0.991,0.701,0.321,0.569,0.529,�k�k��,5.0,�L
2023/09/23,07:00,0.522,0.788,0.486,0.989,0.701,0.322,0.569,0.528,�k�k��,5.4,�L
2023/09/23,07:10,0.523,0.786,0.484,0.990,0.699,0.319,0.567,0.528,�k�k��,4.3,�L
2023/09/23,07:20,0.522,0.786,0.484,0.989,0.700,0.318,0.569,0.527,�k�k��,4.2,�L
2023/09/23,07:30,0.523,0.786,0.487,0.990,0.700,0.320,0.568,0.527,�k�k��,5.2,�L
2023/09/23,07:40,0.524,0.786,0.485,0.988,0.701,0.320,0.568,0.528,�k,5.2,�L
2023/09/23,07:50,0.524,0.784,0.483,0.988,0.701,0.321,0.567,0.526,�k�k��,6.1,�L
2023/09/23,08:00,0.522,0.785,0.485,0.988,0.700,0.322,0.568,0.527,�k,6.0,�L
2023/09/23,08:10,0.522,0.783,0.485,0.985,0.699,0.322,0.567,0.528,�k�k��,5.5,�L
2023/09/23,08:20,0.521,0.785,0.484,0.986,0.698,0.319,0.566,0.527,�k�k��,6.2,�L
2023/09/23,08:30,0.520,0.784,0.484,0.985,0.697,0.319,0.566,0.526,�k�k��,5.9,�L
2023/09/23,08:40,0.522,0.785,0.484,0.986,0.698,0.320,0.567,0.526,�k�k��,6.6,�L
2023/09/23,08:50,0.522,0.783,0.485,0.985,0.699,0.321,0.565,0.527,�k�k��,6.5,�L
2023/09/23,09:00,0.523,0.783,0.484,0.986,0.700,0.321,0.566,0.527,�k�k��,6.0,�L
2023/09/23,09:10,0.523,0.784,0.485,0.985,0.699,0.320,0.565,0.527,�k�k��,5.7,�L
2023/09/23,09:20,0.522,0.782,0.484,0.985,0.697,0.321,0.566,0.527,�k�k��,5.4,�L
2023/09/23,09:30,0.521,0.783,0.483,0.985,0.698,0.318,0.565,0.527,�k�k��,5.8,�L
2023/09/23,09:40,0.520,0.787,0.485,0.984,0.699,0.318,0.564,0.527,�k�k��,6.0,�L
2023/09/23,09:50,0.520,0.783,0.485,0.983,0.697,0.319,0.566,0.527,�k��,6.2,�L
2023/09/23,10:00,0.519,0.782,0.483,0.984,0.696,0.318,0.563,0.526,�k�k��,5.9,�L
2023/09/23,10:10,0.517,0.782,0.483,0.981,0.698,0.318,0.564,0.527,�k�k��,5.9,��
2023/09/23,10:20,0.519,0.784,0.482,0.982,0.701,0.318,0.564,0.526,�k�k��,6.1,��
2023/09/23,10:30,0.516,0.782,0.482,0.982,0.699,0.316,0.566,0.527,�k��,6.3,��
2023/09/23,10:40,0.517,0.779,0.482,0.982,0.698,0.315,0.564,0.525,�k�k��,5.9,��
2023/09/23,10:50,0.516,0.781,0.480,0.982,0.696,0.315,0.565,0.524,�k�k��,6.0,�L
2023/09/23,11:00,0.517,0.782,0.480,0.981,0.696,0.315,0.566,0.526,�k��,6.6,��
2023/09/23,11:10,0.516,0.782,0.478,0.982,0.695,0.315,0.565,0.526,�k��,6.1,�L
2023/09/23,11:20,0.517,0.781,0.480,0.982,0.696,0.315,0.564,0.526,�k�k��,6.1,�L
2023/09/23,11:30,0.516,0.779,0.481,0.980,0.696,0.315,0.566,0.525,�k�k��,6.9,�L
2023/09/23,11:40,0.519,0.781,0.479,0.984,0.696,0.316,0.566,0.527,�k�k��,6.4,�L
2023/09/23,11:50,0.517,0.782,0.481,0.982,0.696,0.315,0.565,0.527,�k�k��,7.8,�L
2023/09/23,12:00,0.516,0.783,0.480,0.984,0.697,0.315,0.565,0.524,�k�k��,6.0,��
2023/09/23,12:10,0.517,0.782,0.479,0.980,0.696,0.316,0.565,0.525,�k�k��,5.8,��
2023/09/23,12:20,0.517,0.784,0.478,0.980,0.696,0.315,0.566,0.526,�k�k��,5.8,��
2023/09/23,12:30,0.517,0.783,0.480,0.980,0.697,0.316,0.567,0.528,�k�k��,5.3,��
2023/09/23,12:40,0.516,0.784,0.480,0.982,0.698,0.316,0.565,0.527,�k�k��,5.0,��
2023/09/23,12:50,0.518,0.783,0.481,0.983,0.698,0.314,0.566,0.528,�k�k��,4.4,��
2023/09/23,13:00,0.518,0.783,0.479,0.983,0.696,0.315,0.566,0.527,�k�k��,5.3,��
2023/09/23,13:10,0.518,0.785,0.480,0.981,0.697,0.314,0.566,0.527,�k�k��,5.5,��
2023/09/23,13:20,0.519,0.784,0.481,0.984,0.700,0.315,0.566,0.527,�k�k��,5.3,��
2023/09/23,13:30,0.518,0.785,0.482,0.984,0.698,0.314,0.567,0.527,�k�k��,5.8,��
2023/09/23,13:40,0.519,0.785,0.480,0.982,0.698,0.314,0.566,0.527,�k�k��,5.5,��
2023/09/23,13:50,0.518,0.785,0.481,0.985,0.699,0.315,0.568,0.527,�k�k��,5.4,��
2023/09/23,14:00,0.518,0.787,0.482,0.984,0.699,0.315,0.565,0.526,�k�k��,5.4,��
2023/09/23,14:10,0.519,0.786,0.481,0.985,0.700,0.316,0.567,0.528,�k�k��,4.4,��
2023/09/23,14:20,0.518,0.786,0.482,0.982,0.698,0.317,0.566,0.529,�k�k��,5.4,��
2023/09/23,14:30,0.518,0.785,0.482,0.985,0.700,0.315,0.566,0.526,�k,5.9,��
2023/09/23,14:40,0.520,0.786,0.483,0.984,0.701,0.316,0.567,0.527,�k,6.6,��
2023/09/23,14:50,0.519,0.785,0.483,0.985,0.702,0.316,0.568,0.525,�k,6.0,��
2023/09/23,15:00,0.520,0.787,0.484,0.984,0.699,0.316,0.567,0.528,�k,4.7,��
2023/09/23,15:10,0.519,0.789,0.483,0.986,0.699,0.316,0.567,0.527,�k,4.3,��
2023/09/23,15:20,0.519,0.789,0.482,0.985,0.700,0.317,0.568,0.529,�k�k��,4.5,��
2023/09/23,15:30,0.521,0.787,0.482,0.983,0.700,0.316,0.568,0.528,�k�k��,4.0,��
2023/09/23,15:40,0.519,0.786,0.483,0.986,0.701,0.316,0.568,0.527,�k�k��,3.7,��
2023/09/23,15:50,0.520,0.787,0.483,0.986,0.700,0.316,0.568,0.529,�k�k��,3.8,��
2023/09/23,16:00,0.519,0.787,0.482,0.984,0.701,0.317,0.568,0.528,�k�k��,3.9,��
2023/09/23,16:10,0.520,0.788,0.484,0.984,0.701,0.315,0.568,0.527,�k�k��,3.9,��
2023/09/23,16:20,0.520,0.788,0.481,0.987,0.701,0.316,0.567,0.527,�k�k��,3.7,��
2023/09/23,16:30,0.519,0.788,0.483,0.987,0.700,0.316,0.567,0.527,�k�k��,3.9,��
2023/09/23,16:40,0.520,0.789,0.483,0.986,0.700,0.315,0.567,0.528,�k��,3.9,��
2023/09/23,16:50,0.520,0.790,0.483,0.986,0.701,0.315,0.567,0.528,�k��,3.7,��
2023/09/23,17:00,0.520,0.791,0.485,0.987,0.704,0.317,0.566,0.529,�k��,4.8,��
2023/09/23,17:10,0.521,0.790,0.485,0.988,0.704,0.317,0.565,0.528,�k��,4.6,��
2023/09/23,17:20,0.521,0.792,0.487,0.988,0.705,0.318,0.568,0.528,�k��,4.5,��
2023/09/23,17:30,0.520,0.791,0.485,0.987,0.703,0.316,0.567,0.528,�k��,4.2,��
2023/09/23,17:40,0.522,0.793,0.486,0.987,0.703,0.317,0.567,0.528,�k��,4.5,��
2023/09/23,17:50,0.520,0.792,0.485,0.989,0.705,0.318,0.567,0.531,�k��,4.6,��
2023/09/23,18:00,0.524,0.792,0.485,0.989,0.703,0.318,0.567,0.530,�k��,5.0,��
2023/09/23,18:10,0.525,0.791,0.487,0.988,0.704,0.318,0.567,0.530,�k��,5.2,��
2023/09/23,18:20,0.523,0.789,0.486,0.989,0.705,0.317,0.569,0.530,�k��,5.1,��
2023/09/23,18:30,0.523,0.792,0.485,0.988,0.703,0.319,0.567,0.531,�k��,5.2,��
2023/09/23,18:40,0.523,0.792,0.487,0.989,0.705,0.318,0.570,0.530,�k�k��,4.5,��
2023/09/23,18:50,0.524,0.789,0.484,0.988,0.704,0.318,0.568,0.530,�k��,4.6,��
2023/09/23,19:00,0.522,0.791,0.485,0.991,0.706,0.317,0.570,0.530,�k��,4.8,��
2023/09/23,19:10,0.523,0.791,0.486,0.990,0.705,0.317,0.569,0.530,�k��,4.4,��
2023/09/23,19:20,0.523,0.792,0.485,0.988,0.703,0.318,0.570,0.530,�k��,4.8,��
2023/09/23,19:30,0.522,0.791,0.487,0.990,0.704,0.317,0.569,0.530,�k��,5.3,��
2023/09/23,19:40,0.522,0.793,0.486,0.989,0.704,0.317,0.569,0.529,�k��,4.7,��
2023/09/23,19:50,0.525,0.790,0.489,0.989,0.703,0.317,0.568,0.529,�k��,4.9,��
2023/09/23,20:00,0.524,0.791,0.486,0.989,0.704,0.318,0.570,0.528,�k�k��,4.7,��
2023/09/23,20:10,0.524,0.790,0.484,0.989,0.703,0.319,0.569,0.531,�k��,4.9,��
2023/09/23,20:20,0.521,0.793,0.484,0.989,0.705,0.318,0.569,0.531,�k��,5.5,��
2023/09/23,20:30,0.523,0.791,0.486,0.990,0.703,0.318,0.572,0.530,�k�k��,5.0,��
2023/09/23,20:40,0.522,0.792,0.486,0.990,0.705,0.318,0.571,0.531,�k��,5.3,��
2023/09/23,20:50,0.523,0.792,0.486,0.990,0.706,0.319,0.571,0.529,�k��,5.1,��
2023/09/23,21:00,0.522,0.792,0.485,0.988,0.704,0.317,0.570,0.530,�k��,5.1,��
2023/09/23,21:10,0.523,0.793,0.485,0.988,0.704,0.318,0.571,0.529,�k��,5.0,��
2023/09/23,21:20,0.522,0.791,0.486,0.988,0.703,0.317,0.572,0.529,�k��,5.3,��
2023/09/23,21:30,0.523,0.791,0.485,0.988,0.704,0.318,0.571,0.530,�k��,5.5,��
2023/09/23,21:40,0.523,0.791,0.486,0.990,0.703,0.317,0.570,0.530,�k��,5.1,��
2023/09/23,21:50,0.523,0.792,0.485,0.991,0.705,0.317,0.570,0.529,�k��,5.7,��
2023/09/23,22:00,0.523,0.792,0.485,0.989,0.704,0.316,0.571,0.530,�k��,6.1,��
2023/09/23,22:10,0.523,0.790,0.486,0.991,0.704,0.317,0.570,0.530,�k��,6.2,��
2023/09/23,22:20,0.522,0.791,0.486,0.988,0.703,0.318,0.570,0.530,�k��,6.4,��
2023/09/23,22:30,0.523,0.792,0.486,0.990,0.704,0.317,0.571,0.531,�k��,6.3,��
2023/09/23,22:40,0.524,0.790,0.485,0.992,0.705,0.318,0.570,0.531,�k��,6.3,��
2023/09/23,22:50,0.523,0.792,0.485,0.990,0.704,0.317,0.571,0.529,�k��,6.9,��
2023/09/23,23:00,0.523,0.791,0.485,0.992,0.704,0.317,0.571,0.530,�k��,7.1,��
2023/09/23,23:10,0.523,0.793,0.487,0.992,0.702,0.318,0.570,0.530,�k��,6.3,��
2023/09/23,23:20,0.522,0.792,0.486,0.990,0.705,0.318,0.572,0.530,�k��,6.7,��
2023/09/23,23:30,0.523,0.790,0.487,0.990,0.703,0.317,0.570,0.530,�k�k��,6.1,��
2023/09/23,23:40,0.524,0.791,0.486,0.991,0.705,0.318,0.571,0.531,�k��,7.1,��
2023/09/23,23:50,0.523,0.790,0.485,0.992,0.703,0.318,0.572,0.531,�k��,8.1,��
